Location: Broletto
(44.6000°N, 10.5833°E)
Time: 07:29:31
(UTC+00:00)

Cosmos 1655 Rocket - Pass Details

Date: 18 April 2021
Orbit: 970 x 1007 km, 82.9° (Epoch: 06 May)

Event Time Altitude Azimuth Distance (km) Brightness Sun altitude
Rises 20:26:30 0° 351° (N) 3,708 7.9 -22.3°
Reaches altitude 10° 20:29:02 10° 351° (N) 2,750 7.1 -22.6°
Maximum altitude 20:35:21 85° 264° (W) 988 4.0 -23.4°
Enters shadow 20:37:46 40° 179° (S) 1,396 4.4 -23.7°
